Weather History for Deer Park, WA

Change the Weather History Date:

Tuesday, November 6, 2012

  Actual Average Record
Temperature  
Mean Temperature 47 °F 37 °F  
Max Temperature 59 °F 46 °F 61 °F (2006)
Min Temperature 35 °F 28 °F 1 °F (2003)
Degree Days  
Heating Degree Days 18 28  
Month to date heating degree days 106 163  
Since 1 July heating degree days 1018 1231  
Cooling Degree Days 0 0  
Month to date cooling degree days 0 0  
Year to date cooling degree days 232 187  
Moisture  
Dew Point 44 °F    
Average Humidity 84    
Maximum Humidity 100    
Minimum Humidity 67    
Precipitation  
Precipitation 0.02 in 0.10 in 0.21 in (1999)
Month to date precipitation 0.17 0.61  
Year to date precipitation 20.17 16.67  
Sea Level Pressure  
Sea Level Pressure 30.06 in    
Wind  
Wind Speed 3 mph (NE)    
Max Wind Speed 9 mph    
Max Gust Speed 12 mph    
Visibility 6 miles    
Events Fog , Rain    
T = Trace of Precipitation, MM = Missing Value Source: NWS Daily Summary

Daily Weather History Graph

Daily Weather History Graph

Search for Another Location

Airport:

Trip Planner

Search our weather history database for the weather conditions in past years. The results will help you decide how hot, cold, wet, or windy it might be!

Date:

Astronomy

Nov. 06, 2012 Rise Set
Actual Time 6:43 AM PST 4:22 PM PST
Civil Twilight 6:10 AM PST 4:55 PM PST
Nautical Twilight 5:33 AM PST 5:32 PM PST
Astronomical Twilight 4:56 AM PST 6:09 PM PST
Moon 11:12 PM PST (11/6) 12:33 PM PST (11/6)
Length of Visible Light 10h 45m
Length of Day
9h 39m
Waning Gibbous, 52% of the Moon is Illuminated
Nov 6
Waning Gibbous
Nov 6
Last Quarter
Nov 13
New
Nov 20
First Quarter
Nov 28
Full

Hourly Weather History & Observations

Time (PST) Temp. Windchill Dew Point Humidity Pressure Visibility Wind Dir Wind Speed Gust Speed Precip Events Conditions
12:09 AM 35.6 °F - 35.6 °F 100% 30.22 in 1.2 mi Calm Calm - N/A   Overcast
12:21 AM 35.6 °F - 35.6 °F 100% 30.22 in 0.5 mi Calm Calm - N/A Fog Fog
12:53 AM 37.0 °F 34.5 °F 37.0 °F 100% 30.23 in 0.2 mi NNW 3.5 mph - N/A Fog Fog
1:08 AM 39.2 °F 35.9 °F 39.2 °F 100% 30.20 in 2.0 mi NE 4.6 mph - 0.00 in   Overcast
1:17 AM 39.2 °F 37.0 °F 39.2 °F 100% 30.21 in 0.8 mi North 3.5 mph - 0.00 in   Mist
1:53 AM 42.1 °F - 42.1 °F 100% 30.21 in 0.5 mi Calm Calm - 0.00 in Fog Fog
2:23 AM 39.2 °F 37.0 °F 39.2 °F 100% 30.20 in 1.5 mi WNW 3.5 mph - N/A   Mostly Cloudy
2:33 AM 37.4 °F 33.8 °F 37.4 °F 100% 30.20 in 0.5 mi WNW 4.6 mph - N/A Fog Fog
2:53 AM 37.0 °F - 37.0 °F 100% 30.21 in 0.2 mi Calm Calm - N/A Fog Fog
3:53 AM 39.0 °F - 39.0 °F 100% 30.20 in 0.2 mi Calm Calm - N/A Fog Fog
4:53 AM 41.0 °F 39.0 °F 39.9 °F 96% 30.19 in 0.2 mi NE 3.5 mph - 0.01 in Fog Fog
5:43 AM 39.2 °F 37.0 °F 39.2 °F 100% 30.14 in 0.5 mi North 3.5 mph - N/A Fog Fog
5:53 AM 41.0 °F - 39.9 °F 96% 30.18 in 3.0 mi Calm Calm - N/A   Mostly Cloudy
6:53 AM 43.0 °F - 43.0 °F 100% 30.17 in 9.0 mi Calm Calm - N/A   Mostly Cloudy
7:37 AM 42.8 °F - 42.8 °F 100% 30.13 in 7.0 mi Calm Calm - N/A   Mostly Cloudy
7:53 AM 43.0 °F - 42.1 °F 97% 30.16 in 7.0 mi Calm Calm - N/A   Mostly Cloudy
8:04 AM 42.8 °F - 42.8 °F 100% 30.12 in 7.0 mi Calm Calm - N/A   Mostly Cloudy
8:35 AM 46.4 °F 45.2 °F 44.6 °F 93% 30.12 in 8.0 mi NNE 3.5 mph - N/A   Overcast
8:48 AM 46.4 °F 45.2 °F 46.4 °F 100% 30.12 in 10.0 mi NNE 3.5 mph - N/A   Overcast
8:53 AM 46.9 °F - 46.0 °F 97% 30.14 in 10.0 mi NE 3.5 mph - N/A   Overcast
9:53 AM 50.0 °F - 46.9 °F 89% 30.12 in 10.0 mi NNE 3.5 mph - N/A   Scattered Clouds
10:53 AM 53.1 °F - 46.9 °F 80% 30.09 in 10.0 mi NE 4.6 mph - N/A   Mostly Cloudy
11:53 AM 55.0 °F - 46.9 °F 74% 30.05 in 10.0 mi NE 3.5 mph - N/A   Mostly Cloudy
12:53 PM 57.0 °F - 48.0 °F 72% 30.02 in 10.0 mi ENE 5.8 mph - N/A   Clear
1:53 PM 57.0 °F - 46.9 °F 69% 29.98 in 10.0 mi ENE 4.6 mph - N/A   Clear
2:53 PM 57.0 °F - 48.0 °F 72% 29.96 in 10.0 mi NNE 4.6 mph - N/A   Clear
3:53 PM 54.0 °F - 48.0 °F 80% 29.94 in 10.0 mi Calm Calm - N/A   Clear
4:53 PM 46.9 °F - 46.0 °F 97% 29.93 in 10.0 mi Calm Calm - N/A   Clear
5:53 PM 46.9 °F - 46.0 °F 97% 29.90 in 10.0 mi Calm Calm - N/A   Partly Cloudy
6:53 PM 48.0 °F - 46.9 °F 96% 29.90 in 10.0 mi Calm Calm - N/A   Mostly Cloudy
7:53 PM 48.9 °F - 48.0 °F 97% 29.89 in 10.0 mi SE 5.8 mph - 0.00 in Rain Light Rain
8:53 PM 48.9 °F - 48.0 °F 97% 29.88 in 9.0 mi Calm Calm - 0.00 in   Overcast
9:11 PM 48.2 °F - 48.2 °F 100% 29.88 in 8.0 mi Calm Calm - N/A   Overcast
9:21 PM 48.2 °F - 48.2 °F 100% 29.86 in 7.0 mi SE 4.6 mph - 0.00 in Rain Light Rain
9:53 PM 51.1 °F - 50.0 °F 96% 29.88 in 10.0 mi South 4.6 mph - 0.00 in   Overcast
10:27 PM 51.8 °F - 51.8 °F 100% 29.87 in 8.0 mi South 5.8 mph - 0.01 in   Overcast
10:53 PM 52.0 °F - 51.1 °F 97% 29.87 in 5.0 mi South 8.1 mph - 0.01 in   Overcast
11:53 PM 52.0 °F - 51.1 °F 97% 29.87 in 4.0 mi South 5.8 mph - N/A   Overcast